View from above orbital plane
|
View from above satellite
|
Ground track
|
The orbit data is extracted from the following two-line orbital elements,
1 40043U 14033AK 22175.75789266 .00000872 00000-0 13297-3 0 9991
2 40043 97.6563 4.6239 0060367 131.8943 228.7438 14.75023556430700
Epoch (UTC): | 24 June 2022 18:11:21 |
Eccentricity: | 0.0060367 |
inclination: | 97.6563° |
perigee height: | 602 km |
apogee height: | 687 km |
right ascension of ascending node: | 4.6239° |
argument of perigee: | 131.8943° |
revolutions per day: | 14.75023556 |
mean anomaly at epoch: | 228.7438° |
orbit number at epoch: | 43070 |
The dashed part of the orbit path shows where the satellite is in the earth's shadow,
|
|